| time (UTC) | temp F | wind direction | speed MPH | gust MPH | rain 1hr in | rain 24hr in | rain mn in | humidity % | barometer mb |
| 20260902161009 | 84 | 40 | 3.0 | 12.0 | 0.00 | 0.00 | 0.00 | 79 | 1014.5 |
| 20260902160010 | 83 | 58 | 4.0 | 15.0 | 0.00 | 0.00 | 0.00 | 80 | 1014.3 |
| 20260902155009 | 83 | 48 | 4.0 | 16.0 | 0.00 | 0.00 | 0.00 | 81 | 1014.3 |
| 20260902153010 | 83 | 46 | 3.0 | 10.0 | 0.00 | 0.00 | 0.00 | 81 | 1014.4 |
| 20260902152010 | 83 | 63 | 3.0 | 12.0 | 0.00 | 0.00 | 0.00 | 84 | 1014.3 |
| 20260902151009 | 81 | 60 | 3.0 | 10.0 | 0.00 | 0.00 | 0.00 | 86 | 1014.4 |
| 20260902150009 | 81 | 57 | 4.0 | 10.0 | 0.00 | 0.00 | 0.00 | 87 | 1014.2 |
| 20260902145010 | 80 | 84 | 3.0 | 11.0 | 0.00 | 0.00 | 0.00 | 88 | 1014.5 |
| 20260902144010 | 80 | 51 | 4.0 | 10.0 | 0.00 | 0.00 | 0.00 | 89 | 1014.5 |
| 20260902142010 | 79 | 55 | 3.0 | 9.0 | 0.00 | 0.00 | 0.00 | 90 | 1014.3 |
| 20260902141010 | 78 | 35 | 2.0 | 6.0 | 0.00 | 0.00 | 0.00 | 90 | 1014.3 |
| 20260902140010 | 78 | 43 | 3.0 | 10.0 | 0.00 | 0.00 | 0.00 | 90 | 1014.3 |
| 20260902135010 | 78 | 53 | 3.0 | 9.0 | 0.00 | 0.00 | 0.00 | 90 | 1014.3 |
| 20260902134009 | 77 | 60 | 2.0 | 8.0 | 0.00 | 0.00 | 0.00 | 90 | 1014.3 |
| 20260902132009 | 77 | 64 | 3.0 | 10.0 | 0.00 | 0.00 | 0.00 | 89 | 1014.1 |
| 20260902131010 | 76 | 56 | 2.0 | 6.0 | 0.00 | 0.00 | 0.00 | 89 | 1014.0 |
| 20260902130009 | 76 | 48 | 1.0 | 7.0 | 0.00 | 0.00 | 0.00 | 88 | 1014.1 |
| 20260902123009 | 76 | 65 | 0.0 | 5.0 | 0.00 | 0.00 | 0.00 | 87 | 1014.1 |
| 20260902122010 | 76 | 59 | 1.0 | 3.0 | 0.00 | 0.00 | 0.00 | 86 | 1014.1 |
| 20260902121009 | 76 | 63 | 1.0 | 3.0 | 0.00 | 0.00 | 0.00 | 86 | 1014.1 |
| 20260902120010 | 76 | 23 | 1.0 | 6.0 | 0.00 | 0.00 | 0.00 | 86 | 1014.1 |
| 20260902114009 | 76 | 18 | 1.0 | 3.0 | 0.00 | 0.00 | 0.00 | 85 | 1014.0 |
| 20260902112010 | 76 | 5 | 1.0 | 3.0 | 0.00 | 0.00 | 0.00 | 84 | 1013.7 |
| 20260902110009 | 76 | 19 | 1.0 | 3.0 | 0.00 | 0.00 | 0.00 | 84 | 1013.8 |
| 20260902105009 | 76 | 21 | 0.0 | 2.0 | 0.00 | 0.00 | 0.00 | 83 | 1013.7 |
| 20260902103010 | 77 | 0 | 0.0 | 0.0 | 0.00 | 0.00 | 0.00 | 82 | 1013.7 |
| 20260902102009 | 77 | 0 | 0.0 | 0.0 | 0.00 | 0.00 | 0.00 | 82 | 1013.9 |
| 20260902101009 | 77 | 0 | 0.0 | 1.0 | 0.00 | 0.00 | 0.00 | 82 | 1013.9 |
| 20260902095010 | 77 | 0 | 0.0 | 2.0 | 0.00 | 0.00 | 0.00 | 81 | 1013.6 |
| 20260902093010 | 77 | 0 | 0.0 | 1.0 | 0.00 | 0.00 | 0.00 | 81 | 1013.6 |
| 20260902092009 | 77 | 0 | 0.0 | 1.0 | 0.00 | 0.00 | 0.00 | 80 | 1013.7 |
| 20260902085009 | 78 | 46 | 1.0 | 4.0 | 0.00 | 0.00 | 0.00 | 80 | 1013.6 |
| 20260902081009 | 78 | 0 | 0.0 | 1.0 | 0.00 | 0.00 | 0.00 | 78 | 1013.7 |
| 20260902080009 | 79 | 0 | 0.0 | 3.0 | 0.00 | 0.00 | 0.00 | 77 | 1013.7 |
| 20260902075010 | 79 | 0 | 0.0 | 1.0 | 0.00 | 0.00 | 0.00 | 77 | 1013.9 |
| 20260902074009 | 79 | 0 | 0.0 | 2.0 | 0.00 | 0.00 | 0.00 | 76 | 1013.8 |
| 20260902073009 | 79 | 0 | 0.0 | 2.0 | 0.00 | 0.00 | 0.00 | 75 | 1014.0 |
| 20260902072009 | 79 | 0 | 0.0 | 0.0 | 0.00 | 0.00 | 0.00 | 75 | 1014.1 |
| 20260902071009 | 79 | 0 | 0.0 | 1.0 | 0.00 | 0.00 | 0.00 | 75 | 1013.9 |
| 20260902070009 | 80 | 0 | 0.0 | 0.0 | 0.00 | 0.00 | 0.00 | 74 | 1013.9 |
| 20260902065009 | 80 | 0 | 0.0 | 1.0 | 0.00 | 0.00 | 0.00 | 74 | 1013.9 |
| 20260902064009 | 80 | 0 | 0.0 | 1.0 | 0.00 | 0.00 | 0.00 | 73 | 1014.0 |
| 20260902063008 | 80 | 0 | 0.0 | 0.0 | 0.00 | 0.00 | 0.00 | 73 | 1014.0 |
| 20260902062009 | 81 | 0 | 0.0 | 1.0 | 0.00 | 0.00 | 0.00 | 73 | 1014.0 |
| 20260902061010 | 81 | 0 | 0.0 | 1.0 | 0.00 | 0.00 | 0.00 | 73 | 1014.1 |
| 20260902060009 | 81 | 0 | 0.0 | 1.0 | 0.00 | 0.00 | 0.00 | 72 | 1014.0 |
| 20260902055009 | 82 | 0 | 0.0 | 1.0 | 0.00 | 0.00 | 0.00 | 72 | 1014.0 |
| 20260902054009 | 82 | 0 | 0.0 | 0.0 | 0.00 | 0.00 | 0.00 | 72 | 1014.1 |
| 20260902052009 | 82 | 0 | 0.0 | 1.0 | 0.00 | 0.00 | 0.00 | 71 | 1014.0 |
| 20260902051009 | 83 | 0 | 0.0 | 1.0 | 0.00 | 0.00 | 0.00 | 70 | 1014.0 |
| 20260902050010 | 83 | 0 | 0.0 | 2.0 | 0.00 | 0.00 | 0.00 | 70 | 1014.0 |
| 20260902045010 | 83 | 0 | 0.0 | 2.0 | 0.00 | 0.00 | 0.00 | 70 | 1014.0 |
| 20260902043008 | 84 | 176 | 0.0 | 3.0 | 0.00 | 0.00 | 0.00 | 69 | 1014.0 |
| 20260902041009 | 84 | 196 | 1.0 | 3.0 | 0.00 | 0.00 | 0.00 | 68 | 1014.0 |
| 20260902040009 | 85 | 0 | 0.0 | 2.0 | 0.00 | 0.00 | 0.00 | 68 | 1014.0 |
| 20260902035009 | 85 | 199 | 1.0 | 2.0 | 0.00 | 0.00 | 0.00 | 68 | 1014.0 |
| 20260902034010 | 85 | 178 | 1.0 | 3.0 | 0.00 | 0.00 | 0.00 | 68 | 1014.1 |
| 20260902033009 | 85 | 142 | 1.0 | 2.0 | 0.00 | 0.00 | 0.00 | 67 | 1014.0 |
| 20260902031008 | 86 | 163 | 0.0 | 2.0 | 0.00 | 0.00 | 0.00 | 67 | 1013.9 |
| 20260902025009 | 86 | 0 | 0.0 | 2.0 | 0.00 | 0.00 | 0.00 | 67 | 1013.6 |
| 20260902024009 | 87 | 0 | 0.0 | 1.0 | 0.00 | 0.00 | 0.00 | 66 | 1013.4 |
| 20260902023009 | 87 | 0 | 0.0 | 2.0 | 0.00 | 0.00 | 0.00 | 66 | 1013.4 |
| 20260902022010 | 87 | 0 | 0.0 | 0.0 | 0.00 | 0.00 | 0.00 | 65 | 1013.1 |
| 20260902021010 | 88 | 165 | 1.0 | 2.0 | 0.00 | 0.00 | 0.00 | 65 | 1013.0 |
| 20260902014009 | 89 | 153 | 1.0 | 2.0 | 0.00 | 0.00 | 0.00 | 63 | 1012.9 |
| 20260902013010 | 89 | 152 | 1.0 | 2.0 | 0.00 | 0.00 | 0.00 | 62 | 1012.8 |
| 20260902012009 | 89 | 165 | 2.0 | 4.0 | 0.00 | 0.00 | 0.00 | 62 | 1012.8 |
| 20260902011009 | 90 | 167 | 2.0 | 3.0 | 0.00 | 0.00 | 0.00 | 61 | 1012.8 |
| 20260902010009 | 90 | 152 | 2.0 | 5.0 | 0.00 | 0.00 | 0.00 | 61 | 1012.8 |
| 20260902005009 | 91 | 159 | 2.0 | 5.0 | 0.00 | 0.00 | 0.00 | 60 | 1012.6 |
| 20260902004008 | 92 | 165 | 2.0 | 4.0 | 0.00 | 0.00 | 0.00 | 58 | 1012.4 |
| 20260902003008 | 93 | 166 | 3.0 | 5.0 | 0.00 | 0.00 | 0.00 | 56 | 1012.4 |
| 20260902001008 | 93 | 81 | 3.0 | 6.0 | 0.00 | 0.00 | 0.00 | 49 | 1011.7 |
| 20260902000008 | 94 | 77 | 3.0 | 8.0 | 0.00 | 0.00 | 0.00 | 49 | 1011.6 |
| 20260901235008 | 94 | 79 | 2.0 | 10.0 | 0.00 | 0.00 | 0.00 | 48 | 1011.5 |
| 20260901234009 | 94 | 77 | 2.0 | 7.0 | 0.00 | 0.00 | 0.00 | 48 | 1011.5 |
| 20260901233008 | 95 | 90 | 2.0 | 8.0 | 0.00 | 0.00 | 0.00 | 48 | 1011.6 |
| 20260901232009 | 95 | 62 | 3.0 | 8.0 | 0.00 | 0.00 | 0.00 | 47 | 1011.6 |
| 20260901231009 | 96 | 100 | 2.0 | 10.0 | 0.00 | 0.00 | 0.00 | 46 | 1011.7 |
| 20260901230009 | 96 | 72 | 3.0 | 7.0 | 0.00 | 0.00 | 0.00 | 47 | 1011.7 |
| 20260901225008 | 96 | 47 | 4.0 | 9.0 | 0.00 | 0.00 | 0.00 | 48 | 1011.7 |
| 20260901224009 | 97 | 57 | 3.0 | 11.0 | 0.00 | 0.00 | 0.00 | 47 | 1011.8 |
| 20260901223009 | 96 | 54 | 3.0 | 10.0 | 0.00 | 0.00 | 0.00 | 48 | 1011.6 |
| 20260901220009 | 96 | 60 | 4.0 | 11.0 | 0.00 | 0.00 | 0.00 | 48 | 1011.9 |
| 20260901214009 | 96 | 57 | 4.0 | 10.0 | 0.00 | 0.00 | 0.00 | 48 | 1012.2 |
| 20260901213009 | 100 | 54 | 3.0 | 9.0 | 0.00 | 0.00 | 0.00 | 44 | 1012.2 |
| 20260901212008 | 99 | 74 | 4.0 | 10.0 | 0.00 | 0.00 | 0.00 | 46 | 1012.4 |
| 20260901210008 | 96 | 33 | 3.0 | 9.0 | 0.00 | 0.00 | 0.00 | 49 | 1012.5 |
| 20260901205009 | 94 | 33 | 4.0 | 9.0 | 0.00 | 0.00 | 0.00 | 52 | 1012.8 |
| 20260901204008 | 96 | 48 | 3.0 | 11.0 | 0.00 | 0.00 | 0.00 | 50 | 1012.9 |
| 20260901203008 | 95 | 31 | 2.0 | 9.0 | 0.00 | 0.00 | 0.00 | 53 | 1012.9 |
| 20260901202008 | 94 | 44 | 3.0 | 10.0 | 0.00 | 0.00 | 0.00 | 53 | 1013.0 |
| 20260901200009 | 93 | 80 | 1.0 | 5.0 | 0.00 | 0.00 | 0.00 | 54 | 1013.2 |
| 20260901195009 | 94 | 89 | 3.0 | 6.0 | 0.00 | 0.00 | 0.00 | 52 | 1013.4 |
| 20260901194009 | 94 | 53 | 3.0 | 14.0 | 0.00 | 0.00 | 0.00 | 54 | 1013.5 |
| 20260901193008 | 96 | 42 | 3.0 | 9.0 | 0.00 | 0.00 | 0.00 | 51 | 1013.4 |
| 20260901192008 | 95 | 24 | 2.0 | 8.0 | 0.00 | 0.00 | 0.00 | 52 | 1013.4 |
| 20260901185009 | 95 | 86 | 3.0 | 7.0 | 0.00 | 0.00 | 0.00 | 52 | 1013.7 |
| 20260901184008 | 95 | 77 | 3.0 | 9.0 | 0.00 | 0.00 | 0.00 | 51 | 1014.1 |
| 20260901183008 | 95 | 132 | 2.0 | 8.0 | 0.00 | 0.00 | 0.00 | 52 | 1014.2 |
| 20260901182008 | 94 | 134 | 2.0 | 5.0 | 0.00 | 0.00 | 0.00 | 53 | 1014.4 |
| 20260901181009 | 95 | 187 | 2.0 | 6.0 | 0.00 | 0.00 | 0.00 | 53 | 1014.5 |
| 20260901175009 | 93 | 43 | 3.0 | 8.0 | 0.00 | 0.00 | 0.00 | 56 | 1014.9 |
| 20260901174009 | 93 | 80 | 3.0 | 6.0 | 0.00 | 0.00 | 0.00 | 58 | 1015.1 |
| 20260901173008 | 92 | 49 | 3.0 | 13.0 | 0.00 | 0.00 | 0.00 | 59 | 1015.2 |
| 20260901172008 | 92 | 55 | 2.0 | 11.0 | 0.00 | 0.00 | 0.00 | 60 | 1015.5 |
| 20260901171008 | 93 | 103 | 3.0 | 8.0 | 0.00 | 0.00 | 0.00 | 58 | 1015.7 |
| 20260901170009 | 92 | 64 | 2.0 | 8.0 | 0.00 | 0.00 | 0.00 | 60 | 1015.8 |
| 20260901164008 | 92 | 19 | 3.0 | 6.0 | 0.00 | 0.00 | 0.00 | 62 | 1015.9 |
| 20260901163008 | 90 | 36 | 2.0 | 10.0 | 0.00 | 0.00 | 0.00 | 65 | 1016.2 |
| 20260901162008 | 89 | 66 | 2.0 | 5.0 | 0.00 | 0.00 | 0.00 | 66 | 1016.0 |